HAZ2137 ZSHC-ZSWZ

Flight info

Callsign HAZ2137
Flight time 0h 33m
Altitude 23600
Route SUPAR9D SUPAR B221 REMIM REMIM1F
Aircraft A359/H-SDE2E3GHIJ3J4J5LM1ORWXY/LB1D1

Departure

Time 2026-05-05 08:17
Airport Hangzhou Xiaoshan International Airport (ZSHC)

Arrival

Time 2026-05-05 08:50
Airport Wenzhou Longwan International Airport (ZSWZ)
Time Latitude Longitude Altitude Speed Heading
2026-05-05 08:01 30.24150 120.42696 38 ft 0 kts 163°
2026-05-05 08:10 30.24151 120.42696 38 ft 2 kts 163°
2026-05-05 08:10 30.24166 120.42690 37 ft 2 kts 165°
2026-05-05 08:10 30.24182 120.42686 36 ft 2 kts 166°
2026-05-05 08:11 30.24198 120.42681 37 ft 2 kts 168°
2026-05-05 08:11 30.24214 120.42678 36 ft 2 kts 172°
2026-05-05 08:11 30.24230 120.42676 37 ft 2 kts 180°
2026-05-05 08:11 30.24247 120.42679 37 ft 2 kts 207°
2026-05-05 08:12 30.24256 120.42689 37 ft 1 kts 240°
2026-05-05 08:12 30.24257 120.42690 37 ft 0 kts 240°
2026-05-05 08:13 30.24254 120.42685 36 ft 3 kts 240°
2026-05-05 08:13 30.24227 120.42632 38 ft 12 kts 241°
2026-05-05 08:13 30.24187 120.42521 38 ft 17 kts 267°
2026-05-05 08:13 30.24282 120.42423 38 ft 22 kts 325°
2026-05-05 08:14 30.24265 120.42270 38 ft 24 kts 242°
2026-05-05 08:14 30.24182 120.42080 38 ft 29 kts 243°
2026-05-05 08:14 30.24088 120.41866 38 ft 30 kts 243°
2026-05-05 08:14 30.23994 120.41655 38 ft 30 kts 243°
2026-05-05 08:15 30.23900 120.41443 38 ft 29 kts 243°
2026-05-05 08:15 30.23815 120.41249 38 ft 23 kts 243°
2026-05-05 08:15 30.23741 120.41080 39 ft 22 kts 243°
2026-05-05 08:15 30.23703 120.40945 39 ft 16 kts 289°
2026-05-05 08:16 30.23756 120.40886 40 ft 0 kts 327°
2026-05-05 08:16 30.23761 120.40882 40 ft 4 kts 328°
2026-05-05 08:16 30.23823 120.40872 40 ft 13 kts 21°
2026-05-05 08:16 30.23896 120.41001 40 ft 37 kts 63°
2026-05-05 08:17 30.24129 120.41530 37 ft 108 kts 63°
2026-05-05 08:17 30.24570 120.42518 45 ft 166 kts 64°
2026-05-05 08:17 30.25140 120.43786 468 ft 186 kts 64°
2026-05-05 08:17 30.25763 120.45174 1072 ft 198 kts 67°
2026-05-05 08:18 30.26398 120.46615 1685 ft 214 kts 66°
2026-05-05 08:18 30.27116 120.48264 1938 ft 245 kts 66°
2026-05-05 08:18 30.27911 120.50081 2527 ft 259 kts 65°
2026-05-05 08:18 30.28738 120.51948 3379 ft 262 kts 65°
2026-05-05 08:19 30.29579 120.53844 4175 ft 267 kts 65°
2026-05-05 08:19 30.30433 120.55774 5008 ft 270 kts 64°
2026-05-05 08:19 30.31293 120.57718 5833 ft 275 kts 65°
2026-05-05 08:19 30.31987 120.59790 6612 ft 279 kts 80°
2026-05-05 08:20 30.31992 120.62017 7440 ft 279 kts 104°
2026-05-05 08:20 30.31196 120.64051 8282 ft 281 kts 128°
2026-05-05 08:20 30.29747 120.65523 9078 ft 283 kts 152°
2026-05-05 08:20 30.27908 120.66365 9627 ft 288 kts 162°
2026-05-05 08:21 30.26043 120.67270 9808 ft 291 kts 156°
2026-05-05 08:21 30.24215 120.68289 9823 ft 293 kts 155°
2026-05-05 08:21 30.22387 120.69340 9824 ft 293 kts 155°
2026-05-05 08:21 30.20567 120.70405 9825 ft 294 kts 154°
2026-05-05 08:22 30.18904 120.71780 9821 ft 296 kts 134°
2026-05-05 08:22 30.17683 120.73695 9826 ft 297 kts 123°
2026-05-05 08:22 30.16597 120.75735 9828 ft 298 kts 122°
2026-05-05 08:22 30.15535 120.77745 9830 ft 297 kts 122°
2026-05-05 08:23 30.14452 120.79781 9824 ft 297 kts 123°
2026-05-05 08:23 30.13234 120.81702 9829 ft 297 kts 136°
2026-05-05 08:23 30.11551 120.82969 9832 ft 293 kts 161°
2026-05-05 08:23 30.09586 120.83646 9833 ft 292 kts 167°
2026-05-05 08:24 30.07607 120.84225 10096 ft 295 kts 168°
2026-05-05 08:24 30.05545 120.84834 10369 ft 318 kts 167°
2026-05-05 08:24 30.03326 120.85484 10671 ft 341 kts 169°
2026-05-05 08:24 30.00955 120.85786 11140 ft 352 kts 181°
2026-05-05 08:25 29.98485 120.85707 11861 ft 358 kts 185°
2026-05-05 08:25 29.95989 120.85439 12574 ft 363 kts 188°
2026-05-05 08:25 29.93455 120.85105 13247 ft 370 kts 188°
2026-05-05 08:25 29.90878 120.84775 13992 ft 374 kts 188°
2026-05-05 08:26 29.88279 120.84465 14695 ft 377 kts 188°
2026-05-05 08:26 29.85656 120.84176 15450 ft 379 kts 187°
2026-05-05 08:26 29.83019 120.83904 16208 ft 382 kts 187°
2026-05-05 08:26 29.80356 120.83641 16952 ft 386 kts 187°
2026-05-05 08:27 29.77710 120.83383 17677 ft 389 kts 187°
2026-05-05 08:27 29.74998 120.83120 18362 ft 393 kts 187°
2026-05-05 08:27 29.72268 120.82856 18999 ft 396 kts 188°
2026-05-05 08:27 29.69525 120.82589 19711 ft 396 kts 188°
2026-05-05 08:28 29.66772 120.82321 20412 ft 399 kts 188°
2026-05-05 08:28 29.63996 120.82050 21109 ft 401 kts 188°
2026-05-05 08:28 29.61207 120.81779 21831 ft 403 kts 188°
2026-05-05 08:28 29.58406 120.81506 22551 ft 405 kts 189°
2026-05-05 08:29 29.55625 120.81217 23218 ft 408 kts 189°
2026-05-05 08:29 29.52794 120.80922 23927 ft 407 kts 190°
2026-05-05 08:29 29.49981 120.80629 24648 ft 406 kts 191°
2026-05-05 08:30 29.44300 120.80037 25674 ft 414 kts 191°
2026-05-05 08:30 29.41425 120.79740 25953 ft 415 kts 191°
2026-05-05 08:30 29.38594 120.79448 26021 ft 402 kts 191°
2026-05-05 08:30 29.35851 120.79167 26026 ft 391 kts 191°
2026-05-05 08:31 29.33150 120.78886 26022 ft 390 kts 191°
2026-05-05 08:31 29.30449 120.78602 26017 ft 390 kts 191°
2026-05-05 08:31 29.27785 120.78325 26018 ft 390 kts 192°
2026-05-05 08:31 29.25092 120.78047 26020 ft 388 kts 192°
2026-05-05 08:32 29.22374 120.77764 25906 ft 401 kts 191°
2026-05-05 08:32 29.19535 120.77462 25848 ft 419 kts 191°
2026-05-05 08:32 29.16582 120.77154 25733 ft 430 kts 191°
2026-05-05 08:32 29.13597 120.76851 25499 ft 430 kts 191°
2026-05-05 08:33 29.10616 120.76542 25263 ft 429 kts 191°
2026-05-05 08:33 29.07656 120.76236 25028 ft 427 kts 191°
2026-05-05 08:33 29.04694 120.75933 24777 ft 426 kts 191°
2026-05-05 08:33 29.01758 120.75628 24544 ft 423 kts 191°
2026-05-05 08:34 28.98872 120.75330 24312 ft 422 kts 191°
2026-05-05 08:34 28.95953 120.75033 24087 ft 421 kts 191°
2026-05-05 08:34 28.93033 120.74734 23882 ft 420 kts 191°
2026-05-05 08:34 28.90139 120.74441 23336 ft 417 kts 191°
2026-05-05 08:35 28.87237 120.74146 22485 ft 418 kts 191°
2026-05-05 08:35 28.84354 120.73854 21849 ft 414 kts 190°
2026-05-05 08:35 28.81499 120.73557 21255 ft 410 kts 190°
2026-05-05 08:35 28.78677 120.73259 20696 ft 405 kts 191°
2026-05-05 08:36 28.75916 120.72967 20144 ft 402 kts 190°
2026-05-05 08:36 28.73147 120.72676 19565 ft 399 kts 190°
2026-05-05 08:36 28.70400 120.72542 19214 ft 394 kts 183°
2026-05-05 08:36 28.67705 120.72922 18326 ft 389 kts 172°
2026-05-05 08:37 28.65058 120.73711 16725 ft 398 kts 167°
2026-05-05 08:37 28.62386 120.74636 15359 ft 401 kts 165°
2026-05-05 08:37 28.59789 120.75562 14836 ft 380 kts 165°
2026-05-05 08:37 28.57344 120.76435 14484 ft 356 kts 165°
2026-05-05 08:38 28.55056 120.77252 14152 ft 335 kts 166°
2026-05-05 08:38 28.52915 120.78015 13716 ft 320 kts 166°
2026-05-05 08:38 28.50815 120.78754 12976 ft 314 kts 166°
2026-05-05 08:38 28.48740 120.79487 12225 ft 311 kts 166°
2026-05-05 08:39 28.46692 120.80211 11514 ft 307 kts 166°
2026-05-05 08:39 28.44662 120.80927 10794 ft 303 kts 165°
2026-05-05 08:39 28.42661 120.81636 10113 ft 300 kts 164°
2026-05-05 08:39 28.40684 120.82336 9373 ft 296 kts 163°
2026-05-05 08:40 28.38733 120.83025 8666 ft 291 kts 163°
2026-05-05 08:40 28.36843 120.83692 7995 ft 286 kts 163°
2026-05-05 08:40 28.34977 120.84350 7545 ft 275 kts 163°
2026-05-05 08:40 28.33154 120.84994 7219 ft 274 kts 163°
2026-05-05 08:41 28.31346 120.85633 6931 ft 270 kts 163°
2026-05-05 08:41 28.29552 120.86264 6679 ft 272 kts 162°
2026-05-05 08:41 28.27748 120.86901 6356 ft 270 kts 162°
2026-05-05 08:41 28.25970 120.87530 6113 ft 264 kts 163°
2026-05-05 08:42 28.24281 120.88125 5999 ft 251 kts 163°
2026-05-05 08:42 28.22657 120.88702 5909 ft 239 kts 163°
2026-05-05 08:42 28.21106 120.89259 5795 ft 229 kts 162°
2026-05-05 08:42 28.19719 120.90068 5608 ft 224 kts 141°
2026-05-05 08:43 28.18763 120.91450 5358 ft 223 kts 122°
2026-05-05 08:43 28.18027 120.92992 5099 ft 221 kts 119°
2026-05-05 08:43 28.17309 120.94540 4856 ft 221 kts 121°
2026-05-05 08:43 28.16600 120.96062 4697 ft 214 kts 121°
2026-05-05 08:44 28.15906 120.97513 4580 ft 204 kts 122°
2026-05-05 08:44 28.14966 120.98598 4446 ft 195 kts 157°
2026-05-05 08:44 28.13639 120.98812 4363 ft 196 kts 182°
2026-05-05 08:44 28.12316 120.98424 4260 ft 198 kts 204°
2026-05-05 08:45 28.11102 120.97695 4157 ft 198 kts 208°
2026-05-05 08:45 28.09942 120.96915 3974 ft 190 kts 209°
2026-05-05 08:45 28.08829 120.96145 3745 ft 186 kts 208°
2026-05-05 08:45 28.07714 120.95441 3520 ft 180 kts 205°
2026-05-05 08:46 28.06622 120.94790 3258 ft 176 kts 205°
2026-05-05 08:46 28.05548 120.94138 2986 ft 180 kts 205°
2026-05-05 08:46 28.04440 120.93465 2744 ft 178 kts 205°
2026-05-05 08:46 28.03384 120.92818 2506 ft 167 kts 205°
2026-05-05 08:47 28.02399 120.92217 2286 ft 155 kts 204°
2026-05-05 08:47 28.01484 120.91659 2084 ft 144 kts 204°
2026-05-05 08:47 28.00632 120.91144 1884 ft 135 kts 204°
2026-05-05 08:47 27.99814 120.90651 1739 ft 134 kts 204°
2026-05-05 08:48 27.98987 120.90151 1533 ft 138 kts 205°
2026-05-05 08:48 27.98141 120.89638 1359 ft 138 kts 205°
2026-05-05 08:48 27.97298 120.89123 1169 ft 137 kts 205°
2026-05-05 08:48 27.96466 120.88596 941 ft 136 kts 205°
2026-05-05 08:49 27.95629 120.88097 795 ft 136 kts 204°
2026-05-05 08:49 27.94777 120.87601 597 ft 138 kts 205°
2026-05-05 08:49 27.93932 120.87071 403 ft 139 kts 207°
2026-05-05 08:49 27.93074 120.86546 294 ft 141 kts 205°
2026-05-05 08:50 27.92214 120.86045 111 ft 141 kts 206°
2026-05-05 08:50 27.91345 120.85509 33 ft 148 kts 206°
2026-05-05 08:50 27.90527 120.85022 24 ft 97 kts 208°
2026-05-05 08:50 27.90271 120.84861 26 ft 13 kts 223°
2026-05-05 08:51 27.90268 120.84760 25 ft 17 kts 298°
2026-05-05 08:51 27.90335 120.84621 24 ft 23 kts 297°
2026-05-05 08:51 27.90424 120.84529 23 ft 12 kts
2026-05-05 08:51 27.90493 120.84603 25 ft 19 kts 48°
2026-05-05 08:52 27.90637 120.84696 23 ft 24 kts 28°
2026-05-05 08:52 27.90768 120.84747 24 ft 16 kts 351°
2026-05-05 08:52 27.90846 120.84717 22 ft 7 kts 339°
2026-05-05 08:52 27.90847 120.84717 22 ft 0 kts 339°